Home > Weather > Anchorage > Past weeks

Flag for USA Past Weather in Anchorage, Alaska, USA — Yesterday and Last 2 Weeks

Now
65 °F

Partly sunny.


Feels Like: 65 °F
Forecast: 55 / 64 °F
Wind: 12 mph from South

Location: Lake Hood Seaplane

Current Time: Jun 25, 2016 at 8:36:05 PM

Latest Report: Jun 25, 2016 at 7:53 PM


Visibility: 10 mi

Pressure: 29.92 "Hg

Humidity: 54%

Dew Point: 48 °F

Location of AnchorageLocation

Past Weather in Anchorage — Graph

°F

Anchorage Temperature Yesterday

Maximum temperature yesterday: 63 °F (at 5:53 PM)
Minimum temperature yesterday: 55 °F (at 4:53 AM)
Average temperature yesterday: 59 °F

High & Low Weather Summary for the Past Weeks

 TemperatureHumidityPressure
High78 °F (Jun 16, 4:53 PM)100% (Jun 19, 12:01 PM)30.14 "Hg (Jun 19, 12:01 PM)
Low50 °F (Jun 12, 4:53 AM)27% (Jun 16, 4:53 PM)29.76 "Hg (Jun 23, 11:53 PM)
Average61 °F64%29.95 "Hg
* Reported Jun 10 6:53 PM — Jun 25 6:53 PM, Anchorage, Weather by CustomWeather, © 2016

Note: Actual official high and low records may vary slightly from our data, if they occured in-between our weather recording intervals... More about our weather records

Advertising

Anchorage Weather History for the Previous 24 Hours

Scroll right to see more
 ConditionsComfort  
Time TempWeatherWind HumidityBarometerVisibility
6:53 PM
Sat, Jun 25
66 °FOvercast.12 mph52%29.91 "Hg10 mi
5:53 PM66 °FPassing clouds.9 mph54%29.90 "Hg10 mi
4:53 PM67 °FBroken clouds.No wind53%29.90 "Hg10 mi
3:53 PM67 °FSunny.6 mph51%29.90 "Hg10 mi
2:53 PM66 °FSunny.No wind61%29.90 "Hg10 mi
1:53 PM66 °FSunny.3 mph59%29.90 "Hg10 mi
12:53 PM65 °FPartly sunny.6 mph68%29.90 "Hg10 mi
11:53 AM62 °FBroken clouds.7 mph75%29.90 "Hg10 mi
10:53 AM62 °FOvercast.No wind75%29.90 "Hg10 mi
9:53 AM62 °FPartly sunny.No wind80%29.90 "Hg10 mi
8:53 AM58 °FSunny.No wind90%29.89 "Hg10 mi
7:53 AM58 °FPassing clouds.No wind90%29.89 "Hg10 mi
6:53 AM58 °FOvercast.No wind87%29.88 "Hg10 mi
5:53 AM58 °FMostly cloudy.No wind87%29.88 "Hg10 mi
4:53 AM57 °FOvercast.No wind83%29.88 "Hg10 mi
3:53 AM57 °FOvercast.No wind83%29.87 "Hg10 mi
2:53 AM57 °FOvercast.3 mph81%29.87 "Hg10 mi
1:53 AM58 °FOvercast.No wind81%29.87 "Hg10 mi
12:53 AM59 °FPassing clouds.No wind78%29.85 "Hg10 mi
11:53 PM
Fri, Jun 24
59 °FScattered clouds.No wind78%29.84 "Hg10 mi
10:53 PM59 °FPassing clouds.No wind78%29.83 "Hg10 mi
10:02 PM61 °FScattered clouds.5 mph72%29.81 "Hg10 mi
9:53 PM60 °FPartly sunny.5 mph75%29.81 "Hg10 mi
8:53 PM61 °FBroken clouds.No wind72%29.80 "Hg10 mi
Weather by CustomWeather, © 2016

See weather overviewHow to use our weather pages